ASIASTAR

Last updated on Sun Dec 21 2025 00:02:52 GMT+0000 (Coordinated Universal Time)

1 26107U 00016A 25354.07277416 -.00000317 00000+0 00000+0 0 9996 2 26107 8.7120 60.0494 0005131 210.8598 309.2167 1.00272929 94128
UTC large
Height (km)
Speed (km/s)
/
Latitude / Longitude
Inclination (degrees)
Orbital Period (minutes)
Azimuth
Elevation
Range (km)
Doppler Factor

Next 0 passes for location: London (51.5072 / 0.1276)

Sorry there are no passes over London.